Calicut International Airport

Jump to: basic info | weather | frequencies | runways | comments

Related pages: nearby airports | nearby navaids | notams | map

Basic information (top)

Codes: CCJ VOCL
Location: lon 11.136800, lat 75.955299, elev 342 ft / 104 m msl
Status: large_airport
Scheduled airline service: yes
Links: Wikipedia Mobile

Weather (top)

Current conditions (rec'd 2014/10/21 11:30Z):

VOCL 211130Z 16003KT 7000 FEW012 FEW025CB BKN080 30/25 Q1008 NOSIG

Airport forecast (rec'd 2014/10/21 06:00Z):

TAF VOCL 210300Z 2106/2212 29010KT 6000 SCT010 SCT015 BKN090 
      TEMPO 2109/2112 2000 TSRA/RA SCT008 SCT012 FEW025CB OVC090 
      BECMG 2117/2118 00000KT 4000 HZ 
      TEMPO 2200/2203 2000 TSRA/RA SCT008 SCT012 FEW025CB OVC090 
      BECMG 2203/2204 05005KT 5000 HZ 
      BECMG 2205/2206 29010KT 6000 
      TEMPO 2209/2212 2000 TSRA/RA SCT008 SCT012 FEW025CB OVC090

Frequencies (top)

Verify before use: may be inaccurate or out of date.

ATIS: 127 MHz (ATIS)
TWR: 122.95 MHz (TWR)

Runways (top)

10/28: 9,383 x 150 ft (2,860 x 46 m) — paved — lighted

Latest comments (top)

Moideenkutty oorakam ( CCJ ): Calicut int airport ( Terminal,1 - ... [read]

Info: Calicut International Airport ... [read]

More... (top)

See also NOTAMs and nearby airports and navaids, or visit the Calicut International Airport page at the main OurAirports website..